Theta_e
310 310 310 310 310 310 310 310 310 310 310 310 310 310 310 310 311 311 311 311 311 312 311 312 312 312 312 312 312 312 313 313 314 314 315 316 316 315 314 314 314 314 314 313 315 315 315 316 317 317 316 316 317 319 320 320 319 319 328 326 325 330 328 326 323 318 319 320 318 317 317 317 318 317 317 318 317 318 317 317 317 317 317 316 316 316 317 317
310 310 310 310 310 310 310 310 310 310 310 310 310 310 310 310 310 310 311 311 311 311 311 311 311 312 311 312 312 313 314 314 315 315 315 315 315 315 314 314 314 314 314 314 314 314 316 317 317 317 316 317 318 319 320 320 318 321 327 325 329 335 327 321 319 317 318 319 318 318 317 318 318 317 316 317 316 316 317 317 317 317 316 316 316 316 316 316
310 310 310 310 310 310 310 310 310 310 310 310 310 310 310 311 311 311 311 311 311 311 311 311 311 311 312 312 312 313 314 315 316 316 314 313 314 314 314 314 315 314 314 314 314 314 316 317 316 317 317 317 318 320 321 320 320 321 322 326 334 330 321 319 318 317 318 318 318 318 318 318 318 317 317 316 316 316 317 317 317 317 317 315 316 316 316 316
310 310 310 310 310 310 310 310 310 310 310 311 311 311 311 311 311 311 311 311 311 311 311 311 311 311 312 312 313 314 314 315 317 316 314 314 315 315 315 315 315 315 314 314 314 314 316 316 316 316 317 317 317 319 320 320 321 321 321 327 330 321 319 321 319 319 318 319 318 317 319 318 318 318 317 316 317 317 316 316 317 317 316 316 316 316 317 317
310 310 310 310 310 310 310 310 310 310 311 311 311 311 311 311 311 311 311 311 311 311 311 311 312 312 312 313 314 314 315 317 318 315 314 315 315 315 316 316 315 315 315 314 314 314 314 315 315 316 316 316 316 318 320 320 320 320 320 322 322 318 320 321 319 319 318 318 318 317 318 318 318 317 317 317 317 317 316 316 316 316 316 316 317 317 317 317
309 309 309 310 310 310 310 310 310 310 311 311 311 311 311 311 312 312 312 312 312 312 312 312 313 313 314 314 314 314 315 317 318 316 316 316 315 316 316 316 315 315 314 314 314 314 314 314 315 316 316 316 316 317 318 319 319 321 321 318 318 319 318 319 318 318 317 317 318 318 318 317 317 317 317 316 316 316 316 316 316 316 316 316 316 317 317 316
309 309 309 309 309 310 310 310 311 311 311 312 312 312 312 312 313 313 313 313 313 313 313 314 314 314 314 315 315 316 316 316 316 317 317 317 317 316 316 315 315 315 314 314 314 314 315 315 315 315 315 315 316 316 316 317 317 320 322 319 319 319 318 318 318 317 317 317 318 318 317 317 317 318 317 316 316 316 316 316 316 316 316 316 316 316 316 316
309 309 310 310 310 311 311 312 312 312 313 313 313 314 314 315 315 315 315 315 315 315 316 316 316 316 317 317 318 318 317 317 317 317 317 317 317 316 316 315 314 314 314 315 314 315 316 316 316 316 315 315 315 316 316 316 316 317 319 318 317 318 317 317 317 316 317 317 317 317 316 316 317 317 316 316 317 317 317 316 316 316 316 316 316 316 316 316
310 310 311 311 312 312 313 314 314 315 316 316 317 318 318 319 319 319 319 320 320 320 320 320 320 320 320 320 320 319 319 320 320 320 319 317 317 316 315 315 315 314 314 315 314 315 317 316 316 317 316 316 316 316 315 316 317 316 316 315 315 315 316 316 315 316 316 316 315 315 315 315 315 317 316 316 317 317 317 316 316 316 315 316 316 316 316 316
312 312 313 314 315 316 317 318 319 319 320 320 321 321 321 321 321 320 320 320 320 320 320 320 320 320 320 320 320 320 321 322 321 320 319 318 317 316 315 315 315 315 315 315 315 316 316 316 317 317 317 317 315 315 315 315 316 315 314 315 314 315 315 315 315 315 315 314 314 314 314 314 314 315 316 317 317 318 317 316 316 316 316 316 316 316 316 316
315 316 317 318 319 320 320 320 320 320 319 319 318 318 318 317 316 316 316 316 317 317 316 316 316 317 317 316 317 319 321 322 321 320 319 318 317 315 316 316 316 315 315 315 315 316 316 316 317 317 317 316 315 315 315 314 315 315 314 315 315 314 315 315 314 314 314 314 315 314 314 313 314 315 316 316 318 317 316 316 316 316 316 316 316 316 315 315
318 318 319 319 318 318 317 317 316 316 315 315 315 315 315 315 315 315 315 315 315 315 315 315 315 315 315 314 315 318 319 319 320 320 320 319 318 317 318 319 319 317 316 315 316 316 317 317 317 317 316 316 315 315 315 315 314 314 314 315 315 314 314 314 314 314 314 314 315 314 314 316 315 315 316 316 317 316 315 316 316 316 316 316 316 315 315 314
317 316 316 315 315 314 314 314 313 313 314 314 314 315 315 316 315 315 316 315 316 316 316 316 315 316 315 313 315 317 317 316 317 318 319 319 319 319 319 319 319 317 315 314 316 317 317 317 316 316 316 316 316 315 315 314 314 315 314 314 316 315 316 315 314 315 314 313 315 315 316 320 318 315 317 317 316 316 316 316 317 317 317 316 315 315 314 314
314 314 313 313 313 313 313 313 313 314 314 315 315 315 315 315 315 316 315 315 316 315 316 316 315 315 314 314 316 316 316 316 316 317 317 318 318 318 318 317 317 316 315 314 315 317 317 318 317 316 315 315 315 315 315 314 314 315 313 315 316 315 319 318 314 315 315 313 314 315 317 320 319 317 317 317 316 316 316 317 316 316 315 315 315 313 313 314
312 312 312 312 313 313 313 313 314 314 314 315 315 315 315 315 315 315 316 316 316 316 316 315 315 315 314 314 316 316 316 316 316 316 316 316 316 316 316 316 316 316 315 314 315 316 316 316 316 316 314 314 314 315 316 317 317 315 314 321 321 316 320 319 314 315 315 314 312 314 318 318 317 315 316 317 316 316 315 315 316 315 314 313 313 313 312 312
312 312 312 312 313 313 314 314 314 314 314 314 314 315 315 316 317 317 319 319 319 319 317 316 315 314 314 315 316 317 317 317 317 317 316 316 316 316 316 316 315 315 315 314 314 314 314 314 314 314 314 314 315 316 318 320 322 320 316 321 323 318 318 320 318 315 314 315 313 313 317 318 316 315 316 317 316 315 314 314 315 314 314 313 313 312 312 311
312 312 312 313 313 314 314 314 314 314 315 315 316 317 318 319 320 321 321 320 321 320 317 316 316 314 314 316 317 317 317 317 317 317 316 315 315 315 315 315 314 314 314 313 313 313 313 313 313 314 314 314 315 316 320 321 323 325 320 319 322 320 318 320 322 316 312 315 315 314 314 315 316 315 314 316 315 315 314 313 314 313 313 312 312 311 310 310
312 313 313 314 314 315 315 315 316 316 318 319 319 320 321 322 322 322 322 321 320 317 316 314 314 317 318 317 316 317 317 316 316 316 315 314 314 314 314 314 314 313 313 313 313 313 313 312 314 317 316 315 314 314 319 321 321 324 323 321 322 321 320 320 321 318 316 317 316 316 315 314 315 313 313 315 315 315 314 314 313 313 312 311 310 309 309 309
313 313 314 314 315 315 316 318 319 320 320 321 322 322 323 323 322 322 320 319 317 318 319 315 315 320 321 317 316 316 316 316 315 314 314 314 314 314 314 314 314 313 312 314 314 312 313 314 315 318 318 317 316 314 316 319 319 321 321 321 321 320 320 319 318 318 317 317 317 318 317 315 316 315 313 315 316 314 314 314 313 311 310 309 308 307 307 307
313 314 314 315 316 318 320 321 321 321 321 322 323 323 323 322 324 322 318 317 318 320 322 319 318 320 319 317 317 317 316 315 315 315 315 315 314 314 314 314 314 313 314 318 318 312 313 318 319 320 320 319 317 314 314 315 315 317 317 319 320 320 320 318 318 318 315 316 319 319 317 317 318 318 315 314 315 314 313 313 311 310 308 307 306 305 305 305
314 315 315 317 319 321 322 322 322 322 323 323 323 323 322 322 324 323 320 320 321 321 322 321 321 320 320 319 318 319 319 317 316 317 316 315 314 314 314 314 315 316 316 316 316 313 314 318 320 321 320 318 317 315 314 315 315 316 317 319 321 321 319 317 317 317 314 315 320 320 317 318 318 318 315 313 314 313 311 311 310 309 307 306 305 304 304 304
316 316 318 320 322 323 323 323 323 323 323 323 322 322 322 321 322 321 320 321 321 322 322 322 322 322 322 320 320 321 321 319 317 317 316 315 314 315 315 315 316 319 317 314 316 316 316 318 319 318 316 316 316 315 315 317 317 318 319 319 320 320 318 320 319 317 314 315 321 321 317 317 318 317 314 312 312 311 310 310 308 307 306 305 304 303 304 304
319 319 321 322 323 323 323 323 323 323 323 322 322 322 322 322 322 321 320 319 321 322 322 322 322 322 322 322 322 321 320 319 318 317 316 314 315 315 315 315 316 319 318 316 318 319 319 320 317 314 313 315 316 316 317 317 318 320 319 318 320 319 317 321 322 319 316 315 318 319 317 317 317 317 314 310 310 310 309 308 307 306 305 304 303 303 303 303
321 321 322 322 322 322 322 322 322 322 322 322 322 322 322 322 322 321 318 318 320 322 321 321 321 321 322 321 321 320 319 319 318 318 317 315 315 315 314 314 316 317 316 316 318 319 321 319 315 314 315 316 317 317 318 317 320 324 322 319 320 320 317 319 321 320 319 321 321 318 320 323 320 318 315 310 309 309 307 307 306 305 304 303 303 302 302 302
321 322 322 322 322 322 321 322 322 322 322 322 322 322 322 322 321 319 317 319 322 322 320 320 320 320 320 319 319 318 317 317 317 318 317 316 315 315 315 314 315 317 318 316 316 318 319 316 316 317 318 318 318 320 319 318 320 324 325 321 320 320 319 320 323 323 321 324 323 318 323 330 326 320 318 312 309 308 307 306 305 304 303 303 302 301 301 301
322 324 324 323 323 322 321 321 322 323 323 322 322 322 322 322 320 318 318 322 325 324 321 320 320 319 317 317 317 316 318 317 316 317 316 315 315 315 315 316 316 318 319 317 317 320 319 317 318 321 321 320 320 321 321 319 319 322 323 322 323 322 320 323 323 321 322 323 320 317 321 326 323 321 321 314 310 309 307 305 305 303 302 302 301 300 300 300
323 324 324 324 324 323 323 322 323 323 323 323 323 322 322 321 319 318 321 326 328 325 321 318 318 317 314 314 315 317 321 318 314 315 315 314 315 314 316 317 316 317 316 316 321 323 318 317 318 320 322 321 321 322 322 320 321 323 321 320 324 322 318 321 319 318 322 321 319 319 318 319 320 321 319 314 310 308 307 305 304 303 302 301 300 300 299 299
324 323 323 324 324 324 324 323 323 323 323 323 323 323 322 321 319 318 324 331 329 322 319 316 315 314 312 313 313 314 317 316 315 315 314 314 315 314 315 317 316 316 314 316 324 324 317 318 321 321 321 321 324 325 323 321 321 324 321 316 318 317 315 319 316 317 320 318 319 322 317 317 324 325 316 311 312 309 307 306 304 303 302 301 300 299 299 298
323 323 324 324 324 324 324 324 324 323 323 323 323 323 321 320 319 320 325 329 326 320 317 314 313 313 311 312 313 311 311 312 314 314 313 314 314 313 314 314 313 314 313 315 323 323 317 316 319 322 322 323 326 324 322 324 320 318 317 316 319 318 316 317 315 317 318 317 320 322 319 318 325 330 318 311 314 311 307 306 304 302 302 300 300 299 298 298
323 324 324 324 324 324 324 324 324 323 323 322 323 323 321 319 319 324 328 327 324 320 314 312 313 313 310 311 312 311 310 311 312 312 312 312 313 312 312 312 310 315 319 319 321 320 315 311 312 318 319 320 322 317 315 318 315 313 316 320 323 322 320 318 319 321 317 319 325 322 320 317 321 332 324 313 315 312 307 306 303 302 301 300 300 299 298 298
323 324 324 324 324 324 324 324 324 324 323 322 323 322 321 321 321 328 329 323 323 321 313 313 314 311 312 315 315 312 310 311 311 312 313 313 313 312 311 313 312 317 324 323 322 318 315 313 313 314 313 314 316 314 312 314 313 314 320 321 322 325 325 320 321 322 318 324 331 324 321 317 318 329 325 313 312 310 308 306 303 301 300 300 299 298 298 298
323 323 324 323 324 323 323 323 323 323 322 322 322 321 322 323 323 328 326 321 326 324 316 317 315 313 315 317 317 314 312 312 311 312 315 315 316 314 315 320 319 320 323 324 323 320 319 320 315 313 312 312 316 317 316 319 318 317 319 320 322 325 324 321 321 321 320 326 329 323 320 319 320 322 316 309 308 308 307 304 302 301 300 299 299 298 297 298
323 323 323 323 323 322 322 321 321 322 322 322 322 321 322 325 325 326 324 324 327 322 318 319 317 316 317 317 318 316 314 314 312 311 314 315 317 316 317 322 322 322 323 322 323 322 323 323 315 314 315 313 315 317 319 322 318 315 317 320 324 322 319 321 321 318 319 322 323 318 316 319 323 317 308 304 304 304 304 302 301 301 299 299 298 298 298 298
322 322 322 322 321 321 320 320 320 321 321 322 321 321 323 325 324 323 323 324 323 319 318 319 316 316 318 319 321 318 315 316 313 311 314 314 316 318 318 317 317 320 322 321 321 321 323 324 320 319 318 315 314 315 322 327 318 314 319 321 322 323 320 319 318 317 319 324 323 318 317 322 324 314 304 302 302 301 301 301 300 300 299 299 298 297 298 299
321 321 320 319 319 319 318 319 319 320 321 321 321 322 323 324 324 324 325 324 322 320 319 318 319 318 318 320 321 317 316 319 315 313 316 317 319 323 323 319 316 318 322 323 322 318 319 323 322 317 314 314 315 314 318 324 321 316 317 318 320 324 323 319 319 320 320 323 322 319 321 322 316 307 303 302 301 300 300 300 299 299 298 298 298 298 298 299
319 319 318 318 318 318 318 317 318 319 321 321 321 323 321 322 324 325 325 322 321 323 319 319 322 321 321 323 321 317 316 319 318 316 318 319 320 323 323 321 319 318 320 322 322 317 316 322 320 313 312 312 313 315 313 316 322 319 316 321 324 321 319 319 322 322 318 319 319 317 320 317 310 307 305 302 302 301 300 299 299 298 298 297 297 298 298 298
318 317 317 317 317 318 317 316 317 319 321 321 322 322 320 321 322 322 321 318 319 321 320 321 323 321 322 323 323 321 318 319 318 317 320 320 319 321 320 318 317 316 317 317 320 320 318 319 319 316 317 312 308 311 312 310 317 320 318 321 321 316 317 319 320 320 318 318 318 315 317 316 313 313 306 303 304 302 300 300 298 298 298 297 297 297 297 298
317 316 316 316 316 316 316 316 318 319 320 321 322 322 321 321 319 318 318 317 318 321 321 323 323 321 322 323 324 322 319 319 318 317 320 321 319 320 320 317 314 312 313 313 317 321 318 318 319 317 318 314 309 312 316 312 311 314 315 315 315 316 319 319 318 319 319 317 318 319 318 317 316 314 308 306 306 303 301 300 299 298 297 297 297 297 298 299
316 314 314 316 316 315 315 316 318 319 319 320 322 322 321 321 318 317 317 316 318 321 322 322 322 322 322 322 322 320 318 319 319 318 320 320 318 317 316 317 314 310 311 313 317 320 319 320 320 316 315 316 315 316 320 318 311 310 313 314 316 317 318 319 317 319 320 317 318 319 318 320 319 313 312 310 306 302 301 301 299 298 297 297 298 299 299 299
314 312 313 315 315 314 315 317 318 318 319 320 321 320 319 319 318 317 317 317 318 320 321 322 322 323 322 321 321 320 319 320 319 319 321 320 318 318 316 318 316 312 311 312 316 319 319 319 319 318 315 316 318 318 320 322 317 315 316 315 315 315 316 317 315 317 318 317 318 317 317 323 319 310 310 310 305 302 301 301 300 298 298 299 300 300 300 298
311 311 312 313 314 313 314 316 317 317 319 319 318 318 318 318 318 317 316 317 318 318 319 320 321 322 321 321 321 319 318 319 318 318 319 319 318 318 317 315 315 315 315 316 319 319 317 318 321 323 319 317 320 320 318 318 318 320 320 318 317 317 316 316 315 316 316 316 318 316 316 320 315 308 308 307 304 302 301 300 300 299 299 300 300 300 299 298
310 311 312 312 312 312 313 316 316 316 318 318 317 317 317 316 318 317 316 316 317 317 316 318 320 320 320 321 320 317 316 318 318 317 317 318 318 317 315 313 312 315 317 318 319 316 314 317 321 322 319 317 318 317 312 312 315 319 319 318 319 319 317 316 315 316 315 315 316 314 314 317 312 307 307 305 303 302 301 301 301 300 301 301 299 299 298 298
308 310 311 311 311 312 313 315 315 315 316 316 315 316 316 315 316 317 317 316 316 317 316 316 317 318 318 319 318 318 317 317 317 317 317 318 316 314 313 312 312 314 315 317 317 314 314 318 318 318 318 317 316 314 312 313 316 316 315 315 316 316 315 315 314 314 314 314 314 313 314 314 310 305 304 303 302 302 302 303 303 301 301 301 300 299 298 297
306 308 310 310 311 312 313 314 314 315 315 315 315 316 315 315 315 316 317 316 316 316 316 316 316 316 317 317 317 318 318 317 317 317 318 319 315 311 310 311 313 313 313 316 316 314 315 316 315 316 317 316 315 313 313 316 317 315 316 316 314 312 312 311 311 312 312 311 312 312 312 313 311 306 303 303 303 301 301 303 303 303 302 302 300 299 297 296
305 307 308 309 310 311 312 313 313 314 314 314 315 315 315 315 315 315 316 316 315 315 315 316 316 315 316 316 316 317 317 317 317 316 316 316 314 311 309 310 312 311 311 312 312 313 315 314 313 314 315 314 314 312 312 314 314 313 313 314 312 311 310 309 310 311 310 310 310 311 311 312 311 309 306 306 306 305 303 302 303 303 303 302 300 298 297 295
305 307 308 309 309 310 311 312 312 313 314 314 314 315 315 315 315 315 315 316 315 315 315 316 316 315 316 316 316 316 316 315 316 316 315 314 313 311 309 309 310 309 309 309 309 312 314 313 312 313 313 312 311 311 311 311 310 309 310 311 310 309 308 308 309 310 310 309 308 308 309 309 309 308 307 307 309 309 306 302 302 303 302 302 300 297 296 295
305 307 308 309 309 309 310 311 311 312 312 313 314 314 314 314 315 315 315 315 315 315 314 314 314 315 315 315 315 315 315 315 315 315 315 313 312 310 308 308 308 308 308 308 308 311 312 312 311 311 312 311 310 310 309 308 308 309 309 309 308 307 306 306 308 308 309 308 307 307 307 307 307 306 305 305 308 308 305 302 302 303 302 301 299 296 296 296
305 306 307 308 309 310 310 310 311 311 312 312 313 313 314 315 315 315 316 314 313 314 314 313 314 315 315 315 315 315 315 314 314 314 314 313 311 310 309 307 306 307 307 307 308 310 312 311 310 309 310 310 309 308 306 305 306 307 307 307 306 305 304 304 305 306 307 307 306 306 306 306 305 304 304 304 303 303 302 301 301 302 300 299 297 296 296 295
304 303 304 307 308 308 309 310 310 311 311 312 313 313 313 314 314 314 315 314 313 313 313 313 314 314 315 315 314 314 314 313 313 312 313 312 310 310 310 308 306 305 306 307 307 307 309 310 308 308 308 307 306 305 305 304 305 305 305 305 304 304 303 303 303 303 304 304 304 304 304 304 303 302 303 302 301 300 300 300 300 300 299 298 297 296 296 295
302 301 301 304 305 305 307 309 310 311 311 311 312 312 311 312 313 313 313 313 314 313 312 313 314 314 315 314 313 313 313 313 314 312 310 310 309 309 310 309 306 304 305 307 306 304 306 308 306 306 306 306 305 303 303 304 304 303 303 302 302 302 302 302 302 302 302 302 302 302 302 302 302 301 300 300 300 299 298 297 298 298 297 297 296 295 294 294
300 300 299 301 304 305 306 308 309 310 311 310 310 310 311 311 312 312 312 310 310 313 312 312 313 313 312 312 312 311 309 309 311 309 306 307 307 307 308 307 305 305 305 305 304 304 306 306 305 304 305 305 303 301 302 303 303 302 301 300 300 300 300 301 301 301 302 301 301 301 301 301 301 301 300 298 297 296 296 295 295 296 296 295 294 293 293 292
298 299 298 298 302 305 305 307 309 309 310 310 309 309 310 310 309 310 311 308 306 308 310 309 310 310 310 311 310 309 306 305 306 304 303 304 303 303 304 304 303 304 305 304 304 305 306 305 305 305 303 302 301 301 302 302 301 301 300 300 300 300 300 300 301 301 301 300 301 301 300 301 301 301 301 298 294 293 293 293 293 293 293 293 293 292 291 291
Wind_Speed
5 4 4 4 3 3 4 3 3 3 3 3 3 3 3 4 4 4 4 5 5 6 6 6 7 8 8 9 10 11 12 13 14 16 16 12 7 4 1 3 5 5 5 3 2 2 1 4 5 3 4 3 1 2 1 1 1 1 2 3 1 2 3 3 2 3 1 3 3 2 2 3 2 6 5 4 7 13 16 22 24 22 22 23 23 21 22 25
5 4 4 4 3 3 3 4 3 3 4 4 4 4 4 4 5 5 5 6 6 7 7 8 8 8 9 9 10 12 12 13 16 15 10 5 2 5 3 4 5 4 5 4 2 1 2 5 5 1 3 4 1 3 3 3 4 3 2 2 3 4 4 6 6 8 6 3 6 6 6 7 5 9 10 5 9 13 12 20 26 27 27 24 20 17 17 18
6 5 5 5 5 4 4 5 4 5 5 5 5 5 5 5 6 6 7 7 7 8 8 9 9 9 10 10 10 11 12 16 15 7 4 5 9 8 3 6 7 6 5 5 3 2 3 2 4 2 3 4 4 5 5 5 5 6 4 2 6 6 6 13 13 14 12 7 5 6 7 9 10 13 13 8 11 11 9 15 20 27 32 28 21 19 20 20
7 7 6 6 6 6 6 6 6 6 6 6 7 6 7 7 7 8 8 8 9 9 9 10 10 10 10 10 11 11 13 15 7 2 4 6 7 5 5 9 10 7 5 5 4 3 3 3 3 3 4 4 5 6 6 7 6 5 6 4 7 5 5 12 14 17 16 9 6 7 9 11 14 14 13 11 9 7 12 18 20 26 34 32 28 25 25 26
8 8 8 7 7 7 7 7 7 7 7 8 7 8 8 8 8 9 9 9 10 10 10 11 11 11 11 11 11 11 11 7 1 3 2 2 1 6 9 11 11 8 6 5 3 2 3 5 5 4 4 4 4 3 5 12 10 4 6 10 11 7 4 11 15 17 16 12 9 9 8 11 14 13 14 12 8 12 19 23 23 28 34 34 32 29 28 28
9 9 8 8 8 8 8 8 8 8 8 9 9 9 9 9 10 10 11 11 11 11 12 12 12 12 12 13 12 12 7 2 2 1 4 6 8 11 13 13 11 8 6 5 4 3 3 3 5 5 3 3 4 4 7 13 12 5 5 10 15 13 8 12 18 17 16 13 10 9 10 13 13 13 16 14 17 27 31 28 28 30 32 33 33 31 31 29
10 10 9 9 9 9 9 9 9 9 9 10 10 10 11 11 11 12 13 13 13 13 13 14 15 15 14 14 14 11 7 10 10 8 11 12 11 12 13 13 9 6 6 7 6 4 3 3 6 7 3 3 5 7 10 11 10 8 5 6 12 14 12 15 18 17 15 13 14 15 13 13 11 11 13 17 28 34 32 29 29 28 28 28 29 28 27 26
11 10 10 10 10 10 10 10 10 11 11 11 12 12 12 13 13 14 15 15 16 15 15 16 16 16 15 14 13 10 11 15 14 12 13 11 11 13 11 9 5 6 7 7 7 3 2 3 6 8 3 3 5 6 9 9 4 5 4 4 5 9 13 16 18 18 20 20 20 17 15 15 17 16 13 23 32 30 26 26 25 23 23 23 23 23 22 22
12 11 11 11 11 11 11 12 12 12 13 13 13 14 14 14 15 15 16 16 16 16 16 16 17 17 15 14 11 9 12 14 11 10 11 11 13 12 8 7 5 7 7 8 7 4 4 5 6 6 3 4 5 7 7 5 3 3 4 6 7 10 15 18 19 22 25 25 21 12 13 18 21 16 12 24 27 23 25 25 23 22 22 22 21 23 22 22
12 12 12 12 12 12 13 13 13 13 14 14 15 15 15 15 15 15 15 15 16 16 16 15 16 15 15 14 7 5 10 11 8 8 9 11 13 12 10 9 8 7 7 8 7 7 7 7 7 5 5 6 4 7 8 3 3 7 10 12 12 14 19 22 22 28 27 23 22 11 11 22 18 6 8 22 23 22 27 26 23 22 22 23 22 23 22 21
13 13 13 13 13 13 13 13 14 14 14 14 14 14 14 14 14 14 14 14 14 14 14 14 15 14 14 14 9 7 11 11 8 8 8 11 12 11 12 11 10 9 8 9 9 9 9 10 10 6 5 4 4 8 9 4 5 10 12 12 15 15 21 25 22 28 21 13 20 13 11 19 10 3 13 24 22 22 25 23 21 20 22 23 21 21 20 20
13 13 13 13 13 13 13 13 13 13 13 13 13 13 12 13 13 13 13 13 13 13 13 13 13 13 13 14 14 13 13 13 12 12 12 14 14 14 14 14 12 11 11 11 11 11 11 12 12 8 5 3 4 6 6 6 9 12 9 6 12 9 13 23 19 23 15 6 14 9 4 11 5 8 18 22 20 16 17 20 23 25 27 24 20 20 17 14
13 13 12 12 12 12 12 12 12 12 12 12 12 12 12 12 12 13 13 13 13 13 13 13 13 13 12 12 14 12 11 12 13 15 16 17 18 17 16 14 11 11 11 11 13 12 12 14 13 10 9 6 4 3 5 9 11 11 5 1 6 6 6 16 14 14 9 5 11 11 3 8 7 14 18 17 17 16 19 24 28 30 29 26 24 19 9 5
12 12 12 11 11 11 11 11 11 11 11 11 11 11 11 11 11 12 12 12 12 12 12 12 12 12 11 11 11 11 10 11 11 13 16 17 18 17 14 11 9 9 10 11 13 12 11 12 12 11 10 9 7 6 6 8 7 6 2 2 2 2 5 12 10 6 2 3 11 12 3 7 7 14 17 15 16 20 24 27 31 30 27 25 20 10 5 9
11 11 10 10 10 10 10 10 9 9 10 10 10 10 10 10 10 10 10 11 11 11 11 11 10 9 10 12 11 9 9 10 11 12 13 15 15 14 11 8 8 8 9 11 12 12 11 10 10 8 7 8 6 4 4 4 4 2 1 2 2 3 4 11 13 6 3 2 7 7 3 5 6 14 17 17 19 21 24 29 31 29 24 18 9 6 9 10
11 10 9 9 9 8 8 8 8 8 9 9 9 10 10 10 10 10 10 10 11 11 10 9 8 6 6 9 8 5 6 8 9 9 10 12 12 10 7 5 5 7 9 11 11 11 11 9 6 4 5 5 1 3 3 4 4 2 2 4 3 3 3 6 9 5 4 4 1 2 2 4 5 10 15 19 23 24 24 28 29 26 18 11 12 12 12 11
10 8 8 8 8 8 7 7 7 7 8 9 9 10 10 10 10 11 11 11 11 10 8 7 6 5 7 9 7 6 7 7 8 8 9 9 9 7 5 5 5 6 8 9 10 9 8 6 3 2 3 2 2 4 3 2 4 4 1 3 4 4 3 3 6 5 4 5 2 3 3 6 7 9 16 20 24 27 24 24 26 20 8 12 15 15 15 14
9 8 8 8 7 7 6 6 7 7 8 9 10 10 10 11 10 11 11 10 9 6 5 7 5 2 6 8 6 6 7 6 7 7 7 7 6 4 4 4 4 6 7 6 6 7 5 4 4 0 2 1 2 4 2 4 5 4 4 3 4 4 3 4 5 3 1 0 3 4 6 9 9 11 18 25 26 23 22 23 19 7 13 17 17 20 19 19
9 9 8 8 7 7 6 7 7 8 8 9 10 10 10 10 9 8 7 7 6 3 2 5 7 2 3 5 6 7 6 7 6 7 7 7 5 6 6 4 4 7 6 3 3 8 8 4 3 1 2 4 5 7 9 9 8 7 7 4 4 5 5 6 7 4 3 3 5 7 7 7 8 9 15 26 26 18 20 17 6 15 20 21 22 23 22 22
10 9 8 8 7 7 7 8 8 9 9 9 9 8 7 6 4 2 4 7 8 8 8 10 11 12 11 10 9 7 7 8 8 9 8 8 7 8 9 7 6 5 4 4 3 7 9 5 2 4 6 9 10 10 11 10 8 6 6 5 5 5 5 6 6 6 2 1 6 7 4 5 7 7 13 23 20 14 11 5 17 20 20 23 24 24 24 25
10 10 9 8 7 7 8 8 9 10 10 9 7 4 3 2 1 2 6 9 12 14 16 17 17 19 19 14 11 12 10 8 9 10 8 9 10 8 10 9 6 2 3 5 4 4 7 4 5 10 11 12 11 9 8 7 7 6 6 5 5 4 5 6 6 7 3 0 5 4 4 6 7 8 17 17 9 7 4 15 18 18 21 22 24 25 25 24
10 10 9 8 8 8 9 9 9 9 9 8 5 3 2 3 3 5 6 9 15 16 16 18 19 21 22 19 19 20 16 9 9 10 10 11 12 9 10 9 4 3 4 5 5 3 4 3 9 14 13 10 8 6 6 7 6 6 5 3 4 4 3 5 6 5 3 0 4 6 5 7 8 11 15 8 10 9 13 19 17 19 23 22 23 24 24 25
10 9 9 9 9 9 9 9 9 8 7 5 4 3 3 3 4 7 6 6 13 17 16 18 21 23 24 21 20 21 17 10 8 10 11 12 14 12 11 9 5 4 4 5 6 5 4 6 13 17 11 7 8 8 7 7 5 4 4 3 5 4 2 4 6 6 4 2 3 5 5 5 7 9 7 10 15 17 20 23 22 23 24 24 24 24 25 26
9 8 9 9 9 9 10 9 8 6 5 4 3 3 2 3 4 6 6 4 7 13 15 16 16 17 18 17 16 15 13 9 6 9 13 15 14 11 10 11 8 4 5 8 10 8 6 9 13 12 7 6 8 9 7 5 4 3 3 4 4 4 3 5 4 5 5 4 1 2 5 4 5 8 1 7 11 16 19 21 23 22 23 25 24 25 26 26
9 8 9 9 9 9 9 8 6 3 3 3 2 2 1 3 4 6 5 3 3 7 10 9 8 8 11 13 13 10 6 6 5 8 14 17 15 8 7 11 8 4 7 8 8 7 7 10 11 7 5 7 7 7 6 3 2 4 3 5 6 6 5 4 3 4 5 5 3 4 4 5 5 7 5 4 6 9 12 15 17 18 20 23 24 24 24 25
9 10 11 11 9 9 8 7 5 3 3 3 3 2 1 2 3 5 4 2 2 4 4 4 5 5 6 8 9 7 3 4 6 11 16 18 15 7 3 6 6 4 6 5 3 3 4 6 5 4 5 5 5 6 5 6 3 3 4 4 5 5 3 1 3 3 2 2 3 3 1 6 4 6 7 5 7 5 8 10 11 15 19 21 23 22 22 24
12 12 12 12 12 11 9 7 6 5 5 5 4 3 1 2 1 3 3 2 3 3 4 3 3 4 5 6 9 8 2 3 7 11 17 16 12 8 3 3 3 3 3 3 0 2 3 1 2 4 3 4 5 5 5 6 6 3 5 4 5 5 3 2 3 1 3 2 5 1 4 5 4 6 7 6 9 5 6 6 8 13 18 20 21 20 22 23
15 14 13 14 15 14 13 11 10 8 8 7 5 4 2 1 1 2 3 2 2 3 4 2 3 5 6 8 11 7 4 7 6 7 15 14 10 6 4 3 3 2 3 4 3 5 1 3 3 5 4 3 5 5 5 8 5 5 5 5 5 4 4 3 4 1 2 2 5 5 4 3 5 5 2 7 7 4 5 5 6 11 15 19 20 19 21 22
18 17 17 17 17 18 17 16 14 13 12 10 8 6 4 4 2 3 1 2 1 2 2 3 4 5 7 7 7 5 5 5 2 5 11 11 10 5 1 3 2 2 4 3 5 5 0 3 4 6 5 4 6 4 4 6 4 4 4 3 3 2 2 2 4 2 1 2 4 7 4 3 5 5 1 5 4 5 5 4 6 11 15 17 17 18 19 20
20 20 19 18 19 21 20 19 17 16 15 12 10 8 6 5 3 2 4 3 0 1 3 3 3 5 7 5 2 3 3 2 3 8 6 5 9 5 0 1 1 1 2 3 1 4 1 2 1 3 4 6 5 2 2 3 4 4 4 3 5 5 3 3 2 3 3 2 6 8 7 6 3 5 3 3 3 8 9 6 7 11 16 17 16 16 17 19
21 21 20 18 20 22 21 20 19 16 16 14 11 9 7 3 2 3 6 1 1 1 3 2 1 5 6 4 2 3 2 2 5 7 3 2 5 3 0 1 1 3 3 5 3 4 2 1 1 3 5 5 6 3 2 3 2 5 5 4 4 4 4 5 4 4 2 4 7 6 6 7 4 5 3 3 4 6 11 10 10 11 15 17 16 15 17 19
23 22 20 19 20 21 20 18 15 14 16 15 13 11 7 2 2 3 2 1 1 2 3 3 3 4 5 3 3 4 2 2 4 4 3 3 4 3 3 3 3 2 3 3 2 3 2 4 4 1 2 5 6 2 2 5 5 5 4 5 4 3 3 2 2 0 2 6 6 3 3 4 6 5 1 5 7 4 9 11 14 15 17 18 16 15 16 18
24 21 18 18 19 19 17 15 12 12 16 16 15 11 5 2 4 3 3 2 1 2 2 2 2 3 5 4 2 3 3 2 5 3 2 4 3 3 4 4 5 4 1 4 1 2 2 5 3 0 2 5 8 4 2 2 1 4 4 4 3 2 1 3 3 1 3 5 5 3 1 1 5 3 4 5 6 9 18 21 21 20 20 18 16 15 16 17
20 18 17 17 16 16 16 15 14 13 15 18 14 8 4 4 3 2 5 5 1 1 1 2 3 2 4 3 3 4 3 2 4 3 1 3 3 3 4 5 5 4 3 2 0 2 2 5 3 4 2 7 9 6 6 5 3 5 5 5 5 4 3 3 3 3 3 4 5 4 1 2 3 1 3 5 9 16 23 24 23 22 20 18 17 16 17 18
18 17 17 16 16 16 15 16 16 13 18 19 10 3 5 4 1 1 4 4 1 1 0 1 4 3 1 2 2 3 3 2 4 3 1 4 4 4 3 4 7 5 3 2 1 3 3 5 5 2 2 8 7 5 6 6 1 3 3 4 2 4 5 2 3 4 3 3 4 3 2 2 3 2 3 7 11 16 19 20 21 20 18 17 17 16 16 17
17 16 17 17 18 17 16 18 17 16 21 18 6 5 6 2 2 3 2 1 2 3 3 1 3 3 2 2 2 2 1 2 3 3 1 3 3 4 5 3 6 8 6 4 2 2 2 5 4 2 1 4 4 2 3 4 1 0 3 2 4 4 5 1 4 2 1 3 4 3 3 2 2 2 2 5 8 9 11 13 16 16 15 16 16 16 16 15
16 16 17 18 18 17 18 19 18 19 23 16 5 6 5 2 4 3 0 1 2 3 5 2 1 3 4 2 3 4 1 1 2 3 2 3 2 4 5 2 2 7 8 5 2 3 3 3 4 2 1 3 2 3 3 3 3 2 2 4 3 1 3 2 1 2 3 5 4 3 6 4 2 2 1 4 5 5 5 7 11 12 14 15 16 16 16 14
14 14 16 17 16 17 19 20 19 22 20 10 6 7 3 2 3 2 1 2 2 3 3 4 3 3 4 3 3 4 4 3 3 3 2 2 2 4 5 2 2 1 5 6 2 1 2 1 6 1 2 2 2 4 3 5 4 3 3 2 1 1 1 1 1 2 4 5 3 5 7 5 4 4 4 5 6 7 6 6 7 9 13 16 16 16 15 14
14 13 13 15 16 18 20 20 21 21 14 5 6 7 3 1 2 2 3 3 2 2 2 3 2 1 2 3 2 2 4 4 4 4 2 2 3 1 3 3 0 3 3 8 5 1 2 2 4 3 1 0 3 3 2 2 3 3 2 2 1 3 3 2 2 3 3 4 4 5 5 4 4 4 7 9 10 9 8 6 6 10 15 17 17 16 15 13
14 10 7 12 18 19 21 22 21 16 8 3 4 3 2 2 3 4 5 3 1 2 2 1 2 1 1 2 2 2 2 2 3 2 1 2 2 1 2 1 2 2 3 5 4 1 2 2 3 3 3 1 1 1 5 4 1 2 2 2 1 1 1 1 2 2 3 3 4 5 5 4 3 1 5 9 9 9 10 8 7 11 16 17 17 16 14 13
14 6 3 10 18 22 24 20 13 8 4 3 2 1 2 3 3 3 5 7 5 2 2 2 2 3 2 1 1 2 1 1 1 0 1 1 1 1 0 1 2 2 2 5 3 1 1 2 2 2 2 1 4 5 4 5 5 4 2 3 3 2 0 2 4 2 3 3 3 3 5 4 3 2 2 6 7 8 12 12 10 14 19 19 18 16 14 13
14 4 2 9 17 25 25 13 5 5 4 4 5 4 4 4 3 5 5 6 5 4 3 3 3 3 2 3 3 3 2 1 2 2 2 4 4 2 2 3 4 3 4 3 0 1 2 3 2 3 4 4 6 4 1 2 5 6 3 2 4 3 4 3 4 3 2 2 1 1 4 2 2 2 2 7 9 13 17 17 16 19 22 20 18 16 14 12
11 4 4 9 16 25 20 7 4 5 3 4 6 8 8 5 4 6 7 6 4 4 4 3 4 5 5 4 4 4 5 3 5 6 5 5 4 1 2 5 5 4 4 2 1 1 3 3 1 3 4 3 4 4 5 4 2 4 0 0 2 3 3 4 4 2 1 3 1 1 4 2 1 2 4 10 12 15 18 18 17 19 20 18 17 16 15 12
8 4 4 7 16 25 16 3 4 6 4 4 4 7 10 9 7 8 8 8 7 5 3 3 5 7 6 5 6 6 6 4 5 6 5 4 3 1 1 5 5 3 2 2 3 3 2 2 2 1 2 4 5 4 4 5 3 2 2 1 2 3 3 2 1 2 1 3 3 2 4 3 1 1 4 8 9 10 15 18 16 15 16 17 17 16 13 10
6 4 5 8 17 24 15 5 2 4 6 6 5 7 8 7 11 14 11 10 11 9 4 4 9 9 6 5 6 7 6 5 4 3 2 2 1 1 3 4 6 4 3 3 7 7 3 2 3 3 3 5 4 2 2 1 2 0 2 2 1 3 3 1 0 1 2 2 2 3 4 2 2 2 3 5 4 6 11 15 16 15 15 15 16 15 12 11
6 4 4 7 16 23 21 14 6 2 4 7 5 7 9 6 7 14 15 11 13 13 5 2 7 8 4 6 6 6 6 5 3 2 2 3 1 1 3 6 8 8 7 7 8 6 2 1 3 5 6 7 5 5 4 3 1 3 4 5 6 5 3 3 2 3 3 2 3 7 7 5 8 8 4 5 5 6 8 12 15 16 15 14 15 15 14 12
6 4 6 7 9 15 18 16 12 4 3 8 5 4 10 10 4 8 13 11 12 14 6 1 6 6 5 7 6 4 5 4 3 4 3 3 2 2 3 6 8 8 6 5 4 4 4 1 3 5 6 6 5 5 2 3 2 5 6 8 9 6 3 4 4 5 4 2 6 10 8 6 10 11 6 4 6 6 7 11 15 16 16 16 15 16 14 11
8 5 12 14 8 6 10 15 17 11 7 7 5 3 6 11 8 7 9 6 8 13 8 3 7 8 7 8 6 4 5 4 4 4 3 3 3 2 2 3 3 4 4 3 2 4 4 3 4 3 4 7 4 2 2 1 3 5 6 8 10 10 7 5 6 8 6 6 10 11 10 9 10 10 7 5 8 9 9 13 16 15 14 16 16 15 12 10
11 5 10 16 9 6 14 21 20 16 12 8 5 5 5 8 9 8 6 3 4 8 8 6 7 9 8 7 6 5 5 5 4 3 2 3 3 3 2 1 1 2 3 3 1 3 4 2 2 3 3 6 5 3 2 1 3 5 7 10 11 11 9 7 9 10 8 9 12 11 11 13 11 7 6 10 13 10 6 7 7 8 13 16 14 12 10 8
11 5 5 9 8 6 13 18 15 11 11 9 7 7 5 5 7 5 4 5 5 4 6 8 7 7 8 8 7 6 6 6 6 4 4 5 3 2 2 2 2 1 3 2 1 1 3 1 1 3 1 5 3 2 0 2 4 6 10 13 12 10 10 10 11 9 7 10 12 10 10 12 9 7 7 10 9 4 5 7 7 10 12 12 11 10 8 7
11 5 2 3 4 5 7 10 11 7 6 8 9 8 6 7 8 5 1 2 5 5 6 10 8 4 4 6 7 7 6 7 8 7 7 6 5 3 1 2 5 4 2 1 0 1 2 1 1 4 2 6 2 4 3 5 4 7 14 17 15 11 9 9 8 8 9 11 10 8 9 8 6 7 9 5 3 6 7 8 10 11 11 10 9 9 8 7
13 9 6 3 2 5 6 5 7 8 7 8 10 9 8 8 7 6 2 1 4 3 5 11 11 6 3 5 6 7 10 13 13 11 9 6 5 5 4 4 7 6 3 3 1 0 3 3 0 3 2 6 3 4 4 3 2 7 11 13 13 12 9 8 8 10 11 9 7 7 8 6 5 7 7 3 6 7 8 10 11 10 9 9 9 9 8 8
Wind_Direction
188 185 186 188 185 190 193 197 201 207 212 220 230 235 243 250 256 264 269 276 282 288 293 299 304 309 311 314 318 321 325 325 322 318 314 308 280 246 284 348 359 357 344 335 314 273 326 28 9 14 0 358 15 267 252 250 213 102 84 100 268 229 204 220 228 320 271 238 295 313 13 45 352 343 331 283 264 270 286 289 287 286 283 283 290 300 294 286
207 204 207 209 211 215 220 223 223 227 231 239 241 246 254 258 265 267 271 276 279 284 287 291 296 299 303 308 312 316 323 324 320 319 319 315 171 149 110 25 6 350 335 323 302 232 109 33 2 335 327 324 265 237 216 201 190 173 129 131 231 214 234 284 309 330 343 302 317 352 3 0 330 326 331 309 273 277 282 285 289 290 291 295 298 299 299 299
217 217 222 223 226 230 234 238 237 242 242 246 249 250 255 258 262 265 267 271 274 278 281 284 289 292 297 301 307 315 323 325 322 333 44 90 111 110 66 2 353 344 322 302 285 221 150 38 323 257 260 281 241 228 208 185 196 202 168 159 242 223 266 295 308 323 331 331 347 1 338 322 308 315 319 296 282 283 264 270 283 289 293 299 301 297 301 308
222 222 226 228 233 236 238 244 245 248 250 251 253 254 258 260 263 266 268 270 273 275 278 282 284 289 293 298 305 313 324 327 325 79 90 102 101 69 351 329 329 334 309 288 284 237 184 194 241 249 246 263 253 235 209 199 205 189 169 187 235 232 278 284 297 312 317 330 340 332 325 313 307 312 303 289 295 282 257 262 271 281 290 295 296 296 298 301
230 230 231 232 236 238 241 244 247 252 255 258 262 264 266 268 269 271 273 274 276 277 280 282 284 287 290 295 300 309 328 343 53 114 109 131 4 320 316 310 308 310 283 266 265 218 206 199 201 234 246 257 265 238 218 215 207 184 202 214 229 244 268 276 292 304 304 312 317 319 319 304 305 303 288 285 280 268 269 275 278 281 287 291 292 295 296 295
238 237 237 238 239 241 245 247 251 254 258 263 267 271 273 275 276 277 277 278 279 280 282 283 286 288 291 295 298 307 320 297 249 256 269 282 286 293 304 304 302 295 261 233 230 207 214 202 200 230 223 237 250 224 249 237 213 215 250 230 235 245 255 280 293 300 300 300 300 302 297 296 303 296 287 278 268 277 284 284 284 284 286 289 290 290 291 290
241 240 240 242 243 246 249 251 255 257 261 265 268 272 274 276 278 279 279 281 281 283 284 286 288 289 292 296 298 305 285 264 277 276 279 283 276 288 300 300 298 272 233 214 229 220 220 204 208 235 219 241 251 228 264 274 226 214 256 248 244 254 266 286 295 301 302 294 291 297 294 289 286 285 291 284 280 288 295 292 289 288 288 288 288 288 288 289
242 243 244 246 248 250 252 256 259 261 265 267 269 272 275 278 279 281 282 284 285 286 286 286 288 289 291 295 299 300 276 278 291 285 280 275 273 289 294 294 283 242 224 214 231 223 221 228 230 247 237 250 265 262 294 318 276 218 246 264 270 285 288 295 299 298 296 290 290 294 285 275 272 276 282 280 287 300 307 304 298 295 291 285 284 289 294 292
244 247 249 251 254 256 258 261 264 267 270 272 275 277 279 282 282 284 286 286 287 287 287 287 287 288 289 289 294 293 283 292 303 291 278 266 271 281 278 286 268 241 228 218 229 212 214 243 253 254 264 288 291 297 320 348 313 304 319 320 320 309 303 304 302 293 288 284 282 282 276 273 274 280 277 276 290 310 312 306 301 297 291 284 284 291 296 295
249 252 255 259 262 264 266 268 271 273 275 277 278 280 282 283 284 285 285 286 286 285 286 285 285 286 285 283 274 269 290 300 304 290 273 262 266 266 267 276 265 251 234 225 226 214 219 244 265 273 289 308 318 306 325 334 293 331 338 330 312 304 306 302 295 288 285 282 274 255 262 272 271 276 270 279 298 313 306 304 302 296 290 289 291 293 296 299
253 257 260 263 265 267 269 270 273 274 276 278 279 281 283 283 284 284 284 284 283 284 284 282 284 282 282 279 245 239 285 295 289 280 265 261 262 260 267 272 263 258 246 233 221 218 224 237 257 274 283 307 325 315 327 326 323 332 337 333 307 309 308 294 286 284 281 278 267 236 245 275 274 203 249 277 305 313 303 304 305 299 294 295 297 299 305 312
255 258 260 262 264 266 268 270 272 274 276 278 281 283 285 286 287 287 287 286 284 284 283 282 283 280 281 274 255 260 284 283 277 273 264 263 262 263 274 277 268 259 253 239 221 220 228 237 251 257 265 294 328 329 331 328 339 328 328 334 303 324 310 285 279 277 266 255 261 216 226 288 268 231 254 281 306 313 307 305 305 301 299 302 309 312 319 325
255 257 259 260 262 264 267 269 271 275 278 280 284 286 289 290 291 292 290 290 289 286 285 284 282 282 279 269 269 278 282 274 270 266 263 262 264 270 276 278 270 257 251 240 226 224 230 240 248 252 266 280 297 300 299 318 332 320 317 134 297 343 308 278 280 279 267 235 224 172 160 281 250 255 272 296 305 311 312 305 302 299 299 306 315 319 334 14
257 257 258 259 261 263 265 268 271 276 280 284 288 289 291 292 293 294 293 292 290 287 286 282 281 283 271 264 277 281 271 268 262 256 258 261 265 272 273 270 266 253 243 237 233 232 234 240 249 258 268 270 275 282 305 324 317 301 322 128 282 318 279 286 296 293 306 197 185 161 209 261 253 274 285 299 299 305 305 299 297 297 304 315 321 331 55 70
254 255 255 256 257 259 261 264 270 276 282 286 289 293 294 297 298 296 295 293 291 288 285 282 281 278 269 270 277 274 262 255 252 252 256 261 265 268 267 263 255 241 232 232 233 237 244 247 250 259 268 271 277 291 336 343 308 285 296 301 284 196 259 299 301 276 199 191 170 157 236 259 267 273 279 295 296 297 295 291 293 301 317 336 2 79 90 72
248 250 250 252 251 253 257 262 269 276 284 289 294 300 303 304 303 298 297 294 291 286 282 281 273 259 267 280 274 257 247 241 246 252 250 255 262 264 263 249 232 225 222 226 233 237 246 252 255 256 258 266 208 109 40 3 320 315 192 248 260 224 260 302 308 296 155 132 183 214 248 272 276 262 271 293 297 295 292 288 294 308 331 24 77 90 82 67
242 244 245 248 247 249 256 263 272 279 289 296 301 306 309 308 302 296 295 289 284 280 274 265 255 252 260 265 260 250 249 246 246 245 244 248 254 260 251 225 208 207 209 215 224 228 235 228 201 229 249 247 137 110 51 346 293 304 227 225 243 235 242 274 304 325 100 111 240 252 235 248 265 272 275 286 291 291 289 292 304 319 11 82 86 80 69 58
236 236 238 243 247 253 260 268 277 283 293 300 303 309 312 307 298 292 289 283 274 268 266 237 210 263 262 246 256 267 253 233 229 233 236 232 232 229 209 206 189 179 181 191 200 187 187 183 156 155 322 312 151 135 165 232 225 244 244 248 264 253 251 264 275 292 55 27 255 259 255 253 268 279 276 278 280 281 287 300 316 1 96 95 84 78 69 61
235 236 240 245 249 256 263 271 279 288 295 300 305 310 311 304 294 287 276 264 244 220 261 220 190 193 256 262 285 279 247 218 217 223 220 213 213 204 186 182 174 160 151 146 186 175 157 125 113 105 282 232 217 189 201 219 212 224 238 241 254 259 269 263 257 265 292 304 270 257 256 257 267 271 273 277 281 289 300 312 29 93 96 88 83 79 74 70
233 234 239 245 250 256 265 273 282 291 297 302 307 309 310 309 310 294 263 253 244 250 269 257 245 253 263 280 289 270 237 221 230 232 222 215 213 199 177 165 160 152 151 149 180 188 160 117 141 195 216 222 225 215 213 225 227 237 252 258 254 250 267 265 265 275 286 310 259 251 266 278 276 276 273 279 292 311 315 43 93 94 86 84 83 78 75 74
231 230 232 236 243 254 262 273 283 293 300 304 309 308 309 320 325 299 291 280 271 267 268 266 261 259 263 266 266 266 256 238 238 235 225 211 195 181 174 162 143 173 217 162 133 158 152 143 208 215 220 226 234 226 220 237 242 242 237 242 255 246 256 260 266 278 291 272 259 291 354 302 286 281 282 292 330 353 69 99 95 90 85 82 81 79 78 79
233 231 230 233 240 253 262 273 282 288 297 299 300 293 282 297 292 294 305 293 284 280 272 267 260 254 257 254 252 261 258 241 231 223 215 196 181 180 179 160 148 203 189 140 110 124 160 211 232 227 225 235 258 254 240 251 252 255 247 237 263 266 287 290 292 311 356 58 270 319 333 292 285 278 293 340 72 72 85 98 96 94 89 81 80 80 82 82
236 233 231 234 243 258 268 278 281 280 284 285 287 280 281 303 302 304 306 283 288 292 278 264 258 252 252 249 245 246 242 238 234 218 208 188 180 187 180 162 177 202 165 159 160 157 179 233 237 235 230 235 263 268 264 271 274 269 262 261 272 291 345 289 299 334 344 276 252 301 300 290 285 278 332 57 95 90 86 92 91 93 91 87 86 83 83 82
230 229 236 244 254 269 277 283 279 270 265 260 267 261 287 316 309 317 309 268 281 291 276 260 253 251 246 239 234 232 229 238 247 217 203 189 182 187 186 181 182 192 200 191 184 185 204 223 226 231 224 204 237 264 268 274 297 286 221 210 250 278 247 233 280 332 333 318 328 8 327 299 257 254 323 80 96 90 90 89 85 89 91 91 90 86 85 83
231 238 253 260 268 277 283 282 268 248 235 221 228 235 320 322 315 336 328 296 277 275 267 246 231 235 229 223 223 214 207 229 230 200 193 189 185 179 193 195 185 202 222 201 192 207 234 237 227 234 243 205 211 251 240 202 295 306 240 211 221 234 238 240 327 8 20 338 325 48 3 293 255 251 235 144 102 83 88 86 85 89 89 91 88 85 87 87
234 239 249 258 268 274 278 278 257 227 213 206 196 194 294 309 324 346 350 6 303 252 223 193 198 210 205 206 202 181 176 239 204 183 184 187 190 181 188 199 186 209 219 194 192 220 232 240 218 209 232 202 193 243 226 159 132 289 251 200 180 162 145 102 47 36 60 262 291 69 73 275 271 258 246 156 115 100 91 84 87 89 87 90 88 87 89 88
230 235 241 248 257 263 266 269 255 230 217 217 196 178 248 293 1 7 15 357 286 202 149 156 172 171 172 170 167 157 160 187 161 177 186 187 195 192 200 212 167 210 227 116 80 258 187 142 87 128 156 154 180 241 231 151 134 233 236 147 112 104 118 159 116 104 228 244 320 334 181 258 276 252 244 136 113 111 101 91 91 93 92 93 93 92 92 89
228 236 241 245 255 263 265 262 251 235 220 211 200 198 224 225 162 57 51 303 278 134 128 144 143 155 158 158 162 148 135 149 139 185 193 193 199 190 212 230 161 233 264 127 183 267 183 163 196 153 124 156 199 224 188 146 146 232 218 145 119 133 168 173 134 180 262 10 318 268 187 237 273 265 224 123 128 157 143 129 113 103 98 96 97 96 95 95
229 235 244 254 261 263 262 258 246 234 225 211 208 218 201 167 141 61 87 238 289 97 148 149 136 157 150 148 170 156 138 151 134 174 187 196 198 183 211 234 187 254 266 157 188 255 248 168 190 142 132 202 215 226 167 148 176 218 182 125 71 89 146 121 126 141 24 25 255 238 187 194 272 291 137 129 158 185 159 139 127 113 105 99 98 98 98 99
237 240 247 255 254 249 248 246 237 230 222 209 207 212 190 160 118 113 213 224 15 84 127 135 150 156 139 122 182 201 157 144 126 138 151 182 189 194 245 231 68 84 336 359 247 256 306 67 105 150 187 198 172 143 82 129 159 126 92 49 19 8 25 56 91 96 67 294 247 229 202 185 269 296 206 184 208 171 153 147 139 116 107 104 101 103 103 102
246 249 253 253 247 241 235 230 230 227 215 203 200 196 180 155 118 195 221 220 50 123 119 135 162 141 148 135 160 202 158 128 144 137 124 139 169 207 322 69 34 58 14 341 310 295 324 38 260 221 201 159 115 90 27 37 94 97 76 58 28 339 6 31 6 43 103 250 259 240 202 176 213 264 243 302 315 155 149 156 153 126 110 109 107 109 109 108
251 254 252 244 236 232 225 223 227 221 207 201 197 185 163 166 222 207 218 50 73 201 149 170 187 161 180 164 149 181 149 151 177 153 145 145 150 198 197 175 160 74 343 265 278 320 274 236 249 254 196 161 120 91 344 359 35 81 83 79 66 343 4 14 313 15 199 246 255 223 138 161 221 250 349 357 350 59 107 122 130 121 114 112 111 113 113 112
250 244 233 223 220 219 216 218 217 204 198 194 188 177 148 201 224 181 174 194 182 191 133 126 163 163 159 152 178 180 135 169 188 175 172 146 151 225 245 227 175 133 195 205 296 345 305 300 282 104 279 185 149 142 220 298 95 130 134 131 123 98 40 268 257 253 263 264 256 227 108 246 250 295 26 19 15 75 100 112 119 120 119 118 120 121 117 113
229 218 212 210 210 212 212 213 207 193 190 186 176 169 171 208 224 164 192 210 175 141 106 97 119 111 128 161 208 172 143 200 177 148 109 136 150 230 258 253 206 150 134 159 150 180 217 306 239 183 223 174 166 181 174 145 152 179 165 142 143 155 178 225 231 220 250 270 276 276 288 217 211 348 25 50 63 82 100 112 119 120 124 126 128 128 122 116
205 203 207 207 205 206 209 210 203 189 184 178 164 182 207 201 195 173 204 215 180 127 70 77 105 102 153 221 239 180 164 198 159 127 150 169 173 198 208 227 204 172 130 145 234 184 185 259 240 197 146 159 172 204 153 112 83 228 146 119 165 192 178 215 248 212 201 272 284 272 252 206 144 82 59 74 73 79 92 105 111 116 126 133 134 132 127 122
200 202 204 206 204 203 205 204 199 191 181 170 162 229 214 198 182 181 200 204 170 139 118 61 87 116 228 263 273 230 156 130 155 138 210 199 196 213 213 218 192 177 159 158 210 190 173 262 271 35 56 173 171 178 135 119 190 203 111 171 223 189 147 161 283 264 177 250 253 224 264 305 85 83 68 73 74 83 92 103 113 123 133 138 140 139 136 131
203 204 208 210 205 202 203 200 194 189 182 171 194 226 196 202 203 189 299 105 131 124 132 168 175 169 208 226 224 215 154 107 162 154 218 218 216 215 204 210 186 184 181 172 210 210 171 265 269 141 183 239 136 75 39 57 104 138 178 223 238 95 95 112 256 279 255 248 248 240 255 257 225 235 134 100 108 116 121 122 124 133 142 146 148 147 145 139
207 210 218 218 207 201 199 194 190 188 184 181 220 220 183 202 202 167 133 128 96 90 137 199 209 176 184 200 224 197 167 183 175 162 204 223 229 202 173 167 0 179 175 151 146 243 137 274 282 240 158 228 68 65 11 11 47 125 186 220 102 89 286 276 168 212 239 251 267 262 252 244 238 217 164 169 174 161 162 151 140 154 162 161 157 154 152 147
207 207 222 221 206 198 192 189 191 192 191 199 218 210 176 172 219 189 145 105 82 108 157 210 206 180 186 178 183 162 160 186 183 171 180 196 226 203 128 149 50 25 99 131 147 246 109 133 276 307 77 149 43 59 204 284 8 48 48 5 45 166 193 219 192 180 214 245 266 265 254 251 252 207 175 191 188 167 162 162 173 185 178 170 164 163 163 161
196 194 228 216 197 192 187 188 193 194 203 223 200 183 133 167 234 219 183 168 138 141 195 205 151 182 199 152 159 162 160 186 175 178 220 213 237 356 57 98 129 87 59 95 116 57 90 153 235 307 349 49 75 195 179 173 121 58 36 356 290 239 207 254 248 168 165 216 244 255 253 249 263 237 182 188 176 161 166 168 184 192 184 179 176 174 174 173
183 186 246 200 189 186 182 184 194 195 211 226 184 151 157 173 201 200 188 196 199 182 187 186 173 181 168 158 174 131 72 330 142 201 288 265 298 317 226 49 100 148 68 59 68 89 134 170 181 270 304 182 221 229 168 153 155 144 159 197 201 207 203 276 270 206 164 195 203 231 260 262 272 303 158 158 150 158 169 167 175 191 192 191 190 187 185 184
177 173 216 191 185 182 179 184 200 191 211 220 204 204 186 156 167 182 179 185 197 194 187 200 208 189 176 198 190 133 121 255 227 209 243 234 237 238 176 127 105 122 113 97 226 133 108 116 139 246 244 216 238 253 115 158 179 160 169 206 186 166 143 190 248 234 209 246 147 220 266 260 249 280 121 136 150 163 170 171 178 193 200 201 200 200 199 199
174 159 171 188 185 180 181 198 202 193 227 207 202 214 201 173 169 184 179 177 185 181 182 198 195 199 210 203 193 179 163 186 217 205 205 219 218 225 183 162 131 91 95 135 237 66 86 94 131 266 286 299 299 328 17 16 109 147 273 328 163 179 158 173 216 188 184 269 305 298 254 217 233 305 112 134 149 159 173 184 190 196 201 205 208 209 209 205
174 183 183 189 184 182 191 232 190 201 227 186 188 216 210 204 197 189 181 182 187 173 171 201 193 203 218 195 194 204 179 185 232 215 199 198 182 134 123 162 158 113 64 182 179 154 139 126 134 190 305 318 331 348 356 2 46 131 251 273 162 173 139 109 134 121 151 236 203 208 246 219 187 347 114 131 142 163 190 200 200 202 206 212 214 211 207 196
159 194 215 208 190 190 208 254 194 215 223 201 213 217 208 217 213 206 198 189 192 184 169 210 200 192 195 184 195 213 198 196 231 221 178 158 138 53 72 123 148 127 75 114 138 141 151 160 142 145 206 240 257 253 224 278 29 158 267 292 255 202 188 162 147 175 218 239 191 215 248 255 275 238 160 153 163 189 210 212 211 219 225 223 216 208 197 184
156 178 202 197 195 204 222 233 228 256 218 200 222 224 212 226 222 205 200 199 202 196 183 215 196 180 177 184 190 214 218 208 191 180 162 148 161 348 80 107 120 119 103 103 118 121 112 175 176 164 196 223 219 211 193 129 124 258 276 282 272 255 218 174 174 202 208 239 256 247 242 257 278 270 217 177 198 219 230 227 224 229 233 228 215 202 191 188
162 194 187 167 191 214 226 230 224 228 210 197 204 219 209 213 222 202 202 205 201 196 198 259 198 188 185 181 184 209 211 195 180 184 166 141 128 40 81 93 102 121 118 102 111 108 91 263 228 174 204 233 212 209 216 91 164 228 252 268 268 263 221 167 189 211 197 223 258 256 251 249 261 267 255 199 205 223 243 251 254 252 241 224 204 190 190 202
178 212 197 184 187 209 214 219 215 212 223 218 216 249 212 201 202 203 202 202 197 195 196 215 207 200 183 172 175 195 193 191 206 200 172 149 134 93 54 41 76 141 127 89 104 105 109 237 245 158 216 259 257 256 308 65 207 223 235 254 263 260 243 209 219 223 209 232 257 262 266 262 259 267 271 252 249 257 260 261 267 262 230 199 186 186 196 211
198 226 205 196 202 214 209 210 206 206 218 221 224 244 214 191 200 202 176 152 202 204 196 204 206 192 182 174 165 175 190 188 201 215 174 146 139 141 140 8 10 153 107 75 76 92 102 228 251 140 221 274 274 269 284 218 236 256 253 251 256 261 258 241 240 238 221 232 252 262 267 267 264 260 261 271 277 277 257 235 236 213 184 177 181 194 205 215
199 219 213 205 217 225 211 204 194 198 216 215 224 235 210 190 204 197 165 169 191 203 197 198 192 179 187 186 174 193 207 178 174 198 178 156 157 166 175 194 180 118 62 62 6 32 91 176 237 102 63 287 262 159 122 241 242 267 270 264 259 262 264 256 252 254 244 242 248 252 260 266 270 272 272 274 273 245 157 156 158 162 170 177 188 199 209 218
206 218 234 242 231 201 191 192 185 190 211 211 218 220 206 214 207 168 106 194 176 181 198 186 164 141 167 175 179 203 191 146 143 153 146 144 155 153 144 169 150 122 74 119 139 19 86 165 296 79 68 279 251 129 213 264 274 272 267 262 255 249 249 249 244 236 236 247 254 252 254 259 267 278 276 257 174 149 145 142 145 157 169 180 195 207 217 225
223 239 246 274 250 196 184 181 183 194 207 206 211 213 208 216 202 173 191 272 130 150 211 188 161 125 140 175 176 170 147 130 125 124 116 110 115 106 98 134 145 141 145 148 148 169 127 132 171 105 136 271 270 134 184 245 313 277 258 248 246 243 241 243 245 240 234 236 247 249 250 249 242 248 252 195 139 153 163 155 153 161 175 198 220 233 239 238